Flag for United Kingdom Weather past 2 weeks in Cheltenham, England, United Kingdom

Now
59 °F

Scattered clouds.


Feels Like: 59 °F
Forecast: 46 / 57 °F
Wind: No wind

Location: Staverton Private


UV Index: 0 (Low)

Visibility: N/A


Pressure: 30.07 "Hg

Humidity: 59%

Dew point: 45 °F

Location of CheltenhamLocation

Historic Weather in Cheltenham

°F

Cheltenham temperature yesterday

Maximum temperature yesterday: 57 °F (at 10:20 AM)
Minimum temperature yesterday: 52 °F (at 6:50 AM)
Average temperature yesterday: 55 °F

Past Weeks' High & Low Weather Summary

 TemperatureHumidityPressure
High64 °F (Apr 21, 1:50 PM)94% (Apr 22, 8:50 AM)30.45 "Hg (Apr 22, 8:50 AM)
Low36 °F (Apr 15, 7:20 AM)35% (Apr 15, 10:20 AM)29.59 "Hg (Apr 20, 5:20 PM)
Average54 °F63%30.10 "Hg
* Reported Apr 9 1:20 PM — Apr 24 1:50 PM, Cheltenham, Weather by CustomWeather, © 2014

Note: Actual official high and low records may vary slightly from our data, if they occured in-between our weather recording intervals... More about our weather records

Advertising

Historic Weather Conditions — Data for Previous 24 hours

 ConditionsComfort  
Time TempWeatherWind HumidityBarometerVisibility
1:50 PM
Apr 24
59 °FScattered clouds.3 mph59%30.09 "HgN/A
1:20 PM61 °FScattered clouds.No wind55%30.09 "HgN/A
12:50 PM61 °FScattered clouds.No wind52%30.09 "HgN/A
12:20 PM59 °FScattered clouds.No wind55%30.09 "HgN/A
11:50 AM57 °FScattered clouds.2 mph63%30.09 "HgN/A
11:20 AM57 °FScattered clouds.2 mph63%30.12 "HgN/A
10:50 AM55 °FScattered clouds.No wind72%30.12 "HgN/A
10:20 AM54 °FScattered clouds.No wind72%30.12 "HgN/A
9:50 AM54 °FScattered clouds.No wind72%30.12 "HgN/A
9:20 AM52 °FScattered clouds.No wind77%30.12 "HgN/A
8:20 AM50 °FScattered clouds.2 mph88%30.12 "HgN/A
7:20 AM48 °FPartly sunny.2 mph87%30.12 "HgN/A
6:50 AM48 °FPassing clouds.No wind87%30.12 "HgN/A
6:50 PM
Apr 23
54 °FScattered clouds.6 mph77%30.01 "HgN/A
6:20 PM55 °FScattered clouds.6 mph72%30.01 "HgN/A
5:50 PM55 °FScattered showers. Scattered clouds.7 mph67%30.01 "HgN/A
5:20 PM55 °FScattered clouds.8 mph77%30.01 "HgN/A
4:50 PM57 °FScattered clouds.12 mph72%30.01 "HgN/A
4:20 PM57 °FScattered showers. Scattered clouds.12 mph77%30.01 "HgN/A
3:50 PM55 °FLight rain. Partly sunny.10 mph82%30.01 "HgN/A
3:20 PM55 °FScattered showers. Partly sunny.9 mph82%30.01 "HgN/A
2:50 PM55 °FScattered showers. Partly sunny.9 mph82%30.01 "HgN/A
2:20 PM55 °FScattered showers. Partly sunny.10 mph77%30.01 "HgN/A
Weather by CustomWeather, © 2014

See weather overview